Miscellaneous Local Product
Issued by NWS North Platte, NE

Home | Current Version | Previous Version | Graphics & Text | Print | Product List | Glossary On
Versions: 1 2 3 4 5 6 7 8 9 10 11 12 13 14 15 16 17 18 19 20 21 22 23 24 25 26 27 28 29 30 31 32 33 34 35 36 37 38 39 40 41 42 43 44 45 46 47 48 49 50
330
AXUS43 KLBF 182310
MISLBF


WESTERN AND NORTH CENTRAL NEBRASKA HOURLY WEATHER ROUNDUP
NATIONAL WEATHER SERVICE NORTH PLATTE NE
500 PM CST WED JAN 18 2017

NOTE: "FAIR" INDICATES FEW OR NO CLOUDS BELOW 12,000 FEET WITH NO
SIGNIFICANT WEATHER AND/OR OBSTRUCTIONS TO VISIBILITY.

NOTE: STATIONS NOT REPORTING VARIABLES SUCH AS SKY/WEATHER OR
PRESSURE ARE PROVIDED BY RAWS AND APRS NETWORKS AND ARE NOT UNDER
NATIONAL WEATHER SERVICE QUALITY CONTROL.

...OBSERVATIONS IN AND NEAR THE EASTERN PANHANDLE OF NEBRASKA...

CITY           SKY/WX    TMP DP  RH WIND       PRES   REMARKS
PINE RIDGE     CLOUDY    42  27  55 W3        29.68F
CHADRON        CLOUDY    38  25  59 W6        29.69F WCI  33
ALLIANCE       CLOUDY    48  24  39 CALM      29.72F
SIDNEY         CLEAR     45  32  60 S10       29.75F
CRESCENT LAKE    N/A     43  26  50 S5          N/A
$$

...OBSERVATIONS IN NORTHERN NEBRASKA AND FAR SOUTHERN SOUTH DAKOTA...

CITY           SKY/WX    TMP DP  RH WIND       PRES   REMARKS
WINNER         FAIR      52  26  36 SE5       29.70F
VALENTINE      CLOUDY    49  21  33 S8        29.71S
THEDFORD       CLEAR     50  25  36 S9G16     29.76S
AINSWORTH      CLEAR     50  24  35 S9        29.73S
O`NEILL        CLEAR     48  37  66 S9        29.78R
ORD            CLEAR     39  33  79 SW3       29.81R
BROKEN BOW     CLOUDY    40  33  76 SW13      29.80S WCI  32
VALENTINE NWR    N/A     49  22  34 S8          N/A
BUTTE            N/A     51  30  44 S7          N/A
HALSEY           N/A     53  26  35 S7G16       N/A
SARGENT          N/A     46  37  71 SE3         N/A
CHAMBERS         N/A     46  36  69 S3          N/A
EWING            N/A     46  40  79 S12         N/A
$$

...OBSERVATIONS IN SOUTHWEST NEBRASKA AND FAR NORTHEAST COLORADO...

CITY           SKY/WX    TMP DP  RH WIND       PRES   REMARKS
WRAY           FAIR      45  32  61 S3        29.81
HOLYOKE        FAIR      45  30  57 S7        29.78F
IMPERIAL       CLOUDY    40  29  64 S6        29.80S
OGALLALA       CLEAR     47  30  51 S5        29.78S
NORTH PLATTE   CLOUDY    42  32  67 S8        29.80S
MCCOOK         CLEAR     46  36  68 S12       29.82S
LEXINGTON      CLEAR     44  37  77 S3        29.82F
STAPLETON        N/A     45  32  59 CALM        N/A
GOTHENBURG       N/A     46  34  64 SW3         N/A
CALLAWAY         N/A     36  31  83 SW8         N/A  WCI  30
$$

...OBSERVATIONS IN CENTRAL LINCOLN COUNTY AREA...

CITY           SKY/WX    TMP DP  RH WIND       PRES   REMARKS
N.P. AIRPORT   CLOUDY    42  32  67 S8        29.80S
N.P. DOWNTOWN    N/A     44  33  64 S3          N/A
N.P. SOUTHEAST   N/A     44  32  63 SW3         N/A
N.P. HILLCREST   N/A     45  35  67 S6          N/A
$$

...SOME OBSERVATIONS FROM AROUND THE REGION...

CITY           SKY/WX    TMP DP  RH WIND       PRES   REMARKS
LARAMIE        CLOUDY    25  18  74 N6        29.85S WCI  18
CHEYENNE       CLEAR     50  16  25 W8        29.78S
DENVER         PTCLDY    51  15  23 CALM      29.77F
AKRON          CLEAR     45  23  42 SW5       29.78S
SCOTTSBLUFF    CLOUDY    48  28  46 E3        29.73F
RAPID CITY     CLOUDY    35  25  66 E6        29.63F WCI  30
BISMARCK       CLOUDY    27  20  75 SE5       29.66S WCI  22
PIERRE         CLOUDY    30  23  75 SE5       29.68F WCI  25
SIOUX FALLS    CLEAR     44  39  82 S12       29.80F
OMAHA          CLEAR     46  39  76 SE13      29.90F
GRAND ISLAND   CLOUDY    45  40  82 S14       29.84F
KANSAS CITY    CLEAR     46  36  68 S10       30.00S
WICHITA        MOCLDY    52  40  63 S14       29.94F
OKLAHOMA CITY  CLOUDY    54  44  69 S8        29.98F
DALLAS         CLOUDY    54  50  86 NW5       30.00F
AMARILLO       SUNNY     57  37  47 SW17      29.88F
DODGE CITY     CLEAR     54  41  61 S18       29.86S
HAYS           CLEAR     53  42  66 S10       29.87S
GOODLAND       CLEAR     43  36  76 S17       29.78F
$$




USA.gov is the U.S. government's official web portal to all federal, state and local government web resources and services.